excitement
Home > Time Zones > World Clock > Weather > U.S.A. > Napa > Past weeks

Flag for U.S.A. Weather past 2 weeks in Napa, California, U.S.A.

Now
57 °F

Clear.


Feels Like: 56 °F
Forecast: 56 / 78 °F
Wind: 7 mph from Southwest

Location: Napa County Airport

Current Time: Sep 23, 2014 at 3:48:38 AM

Latest Report: Sep 23, 2014 at 2:54 AM


Visibility: 10 mi

Pressure: 29.93 "Hg

Humidity: 96%

Dew point: 56 °F

Location of NapaLocation

Historic Weather in Napa — Graph

°F

Napa temperature yesterday

Maximum temperature yesterday: 78 °F (at 1:54 PM)
Minimum temperature yesterday: 59 °F (at 9:54 PM)
Average temperature yesterday: 67 °F

Past Weeks' High & Low Weather Summary

 TemperatureHumidityPressure
High92 °F (Sep 10, 3:54 PM)100% (Sep 10, 2:54 AM)30.01 "Hg (Sep 10, 2:54 AM)
Low48 °F (Sep 10, 4:54 AM)24% (Sep 10, 3:54 PM)29.70 "Hg (Sep 17, 4:54 PM)
Average66 °F76%29.85 "Hg
* Reported Sep 8 1:54 AM — Sep 23 1:54 AM, Napa, Weather by CustomWeather, © 2014

Note: Actual official high and low records may vary slightly from our data, if they occured in-between our weather recording intervals... More about our weather records

Advertising

Napa weather history for previous 24 hours

 ConditionsComfort  
Time TempWeatherWind HumidityBarometerVisibility
1:54 AM
Sep 23
59 °FClear.7 mph90%29.95 "Hg10 mi
12:54 AM58 °FClear.5 mph93%29.94 "Hg10 mi
11:54 PM
Sep 22
60 °FClear.7 mph86%29.93 "Hg10 mi
10:54 PM61 °FClear.10 mph83%29.94 "Hg10 mi
9:54 PM59 °FClear.5 mph84%29.94 "Hg10 mi
8:54 PM62 °FClear.6 mph78%29.93 "Hg10 mi
7:54 PM64 °FSunny.8 mph73%29.92 "Hg10 mi
6:54 PM68 °FSunny.12 mph63%29.91 "Hg10 mi
5:54 PM75 °FSunny.8 mph48%29.90 "Hg10 mi
4:54 PM78 °FSunny.13 mph43%29.91 "Hg10 mi
3:54 PM78 °FSunny.13 mph46%29.92 "Hg10 mi
2:54 PM78 °FSunny.13 mph52%29.93 "Hg10 mi
1:54 PM78 °FSunny.12 mph52%29.94 "Hg10 mi
12:54 PM75 °FSunny.9 mph55%29.97 "Hg10 mi
11:54 AM73 °FSunny.3 mph57%29.99 "Hg10 mi
10:54 AM69 °FSunny.6 mph68%30.00 "Hg10 mi
9:54 AM65 °FScattered clouds.3 mph78%30.01 "Hg10 mi
8:54 AM63 °FPartly sunny.9 mph81%30.01 "Hg10 mi
7:54 AM61 °FOvercast.6 mph90%29.99 "Hg10 mi
6:54 AM60 °FOvercast.5 mph90%29.97 "Hg10 mi
5:54 AM61 °FOvercast.7 mph90%29.97 "Hg10 mi
4:54 AM62 °FOvercast.10 mph86%29.96 "Hg10 mi
3:54 AM62 °FOvercast.10 mph86%29.97 "Hg10 mi
Weather by CustomWeather, © 2014

See weather overviewHow to use our weather pages